TimeCDT,TemperatureF,Dew PointF,Humidity,Sea Level PressureIn,VisibilityMPH,Wind Direction,Wind SpeedMPH,Gust SpeedMPH,PrecipitationIn,Events,Conditions,WindDirDegrees,DateUTC
12:15 AM,44.6,32.0,61,30.13,10.0,SE,8.1,-,N/A,,Clear,140,2013-03-30 05:15:00
12:35 AM,44.6,32.0,61,30.12,10.0,SE,8.1,-,N/A,,Clear,140,2013-03-30 05:35:00
12:55 AM,44.6,33.8,66,30.11,10.0,SSE,8.1,-,N/A,,Clear,150,2013-03-30 05:55:00
1:15 AM,44.6,33.8,66,30.12,10.0,SSE,8.1,-,N/A,,Clear,150,2013-03-30 06:15:00
1:35 AM,44.6,33.8,66,30.12,10.0,SSE,9.2,-,N/A,,Clear,160,2013-03-30 06:35:00
1:55 AM,44.6,33.8,66,30.11,10.0,SE,5.8,-,N/A,,Clear,140,2013-03-30 06:55:00
2:15 AM,44.6,33.8,66,30.11,10.0,SSE,8.1,-,N/A,,Clear,150,2013-03-30 07:15:00
2:35 AM,44.6,33.8,66,30.11,10.0,SSE,5.8,-,N/A,,Clear,160,2013-03-30 07:35:00
2:55 AM,44.6,35.6,71,30.10,10.0,SSE,5.8,-,N/A,,Clear,150,2013-03-30 07:55:00
3:15 AM,44.6,35.6,71,30.10,10.0,SSE,6.9,-,N/A,,Clear,160,2013-03-30 08:15:00
3:35 AM,44.6,35.6,71,30.09,10.0,SSE,5.8,-,N/A,,Clear,150,2013-03-30 08:35:00
3:55 AM,44.6,35.6,71,30.08,10.0,SSE,5.8,-,N/A,,Clear,150,2013-03-30 08:55:00
4:15 AM,44.6,35.6,71,30.07,10.0,SSE,6.9,-,N/A,,Clear,150,2013-03-30 09:15:00
4:35 AM,46.4,35.6,66,30.05,10.0,SE,9.2,-,N/A,,Clear,140,2013-03-30 09:35:00
4:55 AM,44.6,37.4,76,30.05,10.0,SSE,9.2,-,N/A,,Clear,160,2013-03-30 09:55:00
5:15 AM,46.4,37.4,71,30.05,10.0,South,6.9,-,N/A,,Clear,180,2013-03-30 10:15:00
5:35 AM,46.4,37.4,71,30.04,10.0,South,6.9,-,N/A,,Clear,170,2013-03-30 10:35:00
5:55 AM,46.4,37.4,71,30.03,10.0,SSE,5.8,-,N/A,,Mostly Cloudy,150,2013-03-30 10:55:00
6:15 AM,46.4,37.4,71,30.02,10.0,South,6.9,-,N/A,,Mostly Cloudy,170,2013-03-30 11:15:00
6:35 AM,46.4,37.4,71,30.02,10.0,SSE,6.9,-,N/A,,Overcast,160,2013-03-30 11:35:00
6:55 AM,46.4,39.2,76,30.01,10.0,SE,5.8,-,N/A,,Overcast,140,2013-03-30 11:55:00
7:15 AM,46.4,39.2,76,30.01,10.0,SE,4.6,-,N/A,,Overcast,140,2013-03-30 12:15:00
7:35 AM,46.4,39.2,76,30.02,10.0,SE,4.6,-,N/A,,Light Drizzle,140,2013-03-30 12:35:00
7:55 AM,46.4,39.2,76,30.02,10.0,ESE,3.5,-,N/A,,Light Drizzle,110,2013-03-30 12:55:00
8:15 AM,46.4,39.2,76,30.02,7.0,East,4.6,-,N/A,,Mostly Cloudy,100,2013-03-30 13:15:00
8:35 AM,46.4,39.2,76,30.03,5.0,Calm,Calm,-,0.03,Rain,Light Rain,0,2013-03-30 13:35:00
8:55 AM,46.4,39.2,76,30.03,7.0,Calm,Calm,-,0.04,Rain,Light Rain,0,2013-03-30 13:55:00
9:15 AM,46.4,39.2,76,30.03,3.0,ESE,3.5,-,0.02,Rain,Rain,120,2013-03-30 14:15:00
9:35 AM,44.6,41.0,87,30.01,3.0,ESE,8.1,-,0.07,Rain,Rain,110,2013-03-30 14:35:00
9:55 AM,44.6,41.0,87,30.00,2.5,ESE,5.8,-,0.09,Rain,Rain,120,2013-03-30 14:55:00
10:15 AM,44.6,41.0,87,29.99,2.5,ESE,8.1,-,N/A,Rain,Light Rain,120,2013-03-30 15:15:00
10:35 AM,46.4,42.8,87,29.98,3.0,ESE,4.6,-,N/A,,Drizzle,110,2013-03-30 15:35:00
10:55 AM,46.4,42.8,87,29.98,3.0,Calm,Calm,-,0.01,,Light Drizzle,0,2013-03-30 15:55:00
11:15 AM,46.4,42.8,87,29.98,3.0,SSE,6.9,-,N/A,,Light Drizzle,150,2013-03-30 16:15:00
11:35 AM,46.4,42.8,87,29.97,4.0,SSE,9.2,-,N/A,,Overcast,150,2013-03-30 16:35:00
11:55 AM,46.4,42.8,87,29.97,4.0,South,5.8,-,N/A,,Overcast,180,2013-03-30 16:55:00
12:15 PM,48.2,44.6,87,29.97,4.0,South,5.8,-,N/A,,Overcast,170,2013-03-30 17:15:00
12:35 PM,48.2,44.6,87,29.96,5.0,South,4.6,-,N/A,,Overcast,190,2013-03-30 17:35:00
12:55 PM,48.2,44.6,87,29.94,5.0,SSE,9.2,-,N/A,,Overcast,160,2013-03-30 17:55:00
1:15 PM,51.8,46.4,82,29.93,7.0,South,10.4,-,N/A,,Mostly Cloudy,170,2013-03-30 18:15:00
1:35 PM,51.8,48.2,88,29.92,10.0,South,16.1,21.9,N/A,,Overcast,180,2013-03-30 18:35:00
1:55 PM,51.8,48.2,88,29.92,10.0,South,12.7,19.6,N/A,,Overcast,190,2013-03-30 18:55:00
2:15 PM,51.8,46.4,82,29.92,10.0,South,12.7,20.7,N/A,,Overcast,180,2013-03-30 19:15:00
2:35 PM,51.8,46.4,82,29.92,10.0,South,12.7,-,N/A,,Overcast,190,2013-03-30 19:35:00
2:55 PM,51.8,46.4,82,29.91,10.0,SSW,11.5,-,N/A,,Overcast,200,2013-03-30 19:55:00
3:15 PM,51.8,46.4,82,29.91,10.0,SSW,15.0,-,N/A,,Overcast,200,2013-03-30 20:15:00
3:35 PM,51.8,46.4,82,29.90,10.0,SSW,11.5,-,N/A,,Overcast,200,2013-03-30 20:35:00
3:55 PM,51.8,46.4,82,29.90,10.0,South,12.7,-,N/A,,Overcast,190,2013-03-30 20:55:00
4:15 PM,51.8,46.4,82,29.89,10.0,South,11.5,-,N/A,,Overcast,190,2013-03-30 21:15:00
4:35 PM,51.8,46.4,82,29.89,10.0,SSW,9.2,-,N/A,,Overcast,200,2013-03-30 21:35:00
4:55 PM,51.8,46.4,82,29.88,10.0,South,11.5,-,N/A,,Overcast,190,2013-03-30 21:55:00
5:15 PM,51.8,46.4,82,29.88,10.0,SSW,10.4,-,N/A,,Overcast,200,2013-03-30 22:15:00
5:35 PM,51.8,46.4,82,29.87,10.0,SSW,6.9,-,N/A,,Overcast,200,2013-03-30 22:35:00
5:55 PM,51.8,48.2,88,29.88,10.0,South,9.2,-,N/A,,Overcast,180,2013-03-30 22:55:00
6:15 PM,51.8,48.2,88,29.88,10.0,South,3.5,-,N/A,,Overcast,190,2013-03-30 23:15:00
6:35 PM,51.8,46.4,82,29.88,10.0,SSW,6.9,-,N/A,,Overcast,200,2013-03-30 23:35:00
6:55 PM,51.8,46.4,82,29.88,10.0,Calm,Calm,-,N/A,,Overcast,0,2013-03-30 23:55:00
7:15 PM,51.8,46.4,82,29.89,10.0,WSW,3.5,-,N/A,,Overcast,250,2013-03-31 00:15:00
7:35 PM,51.8,46.4,82,29.89,10.0,Calm,Calm,-,N/A,,Mostly Cloudy,0,2013-03-31 00:35:00
7:55 PM,48.2,44.6,87,29.89,7.0,Calm,Calm,-,N/A,,Scattered Clouds,0,2013-03-31 00:55:00
8:15 PM,48.2,44.6,87,29.89,1.5,Calm,Calm,-,N/A,,Mist,0,2013-03-31 01:15:00
8:35 PM,46.4,44.6,93,29.90,0.2,Calm,Calm,-,N/A,Fog,Fog,0,2013-03-31 01:35:00
8:55 PM,48.2,44.6,87,29.90,0.8,Calm,Calm,-,N/A,,Mist,0,2013-03-31 01:55:00
9:15 PM,46.4,42.8,87,29.90,0.2,Calm,Calm,-,N/A,Fog,Fog,0,2013-03-31 02:15:00
9:35 PM,48.2,44.6,87,29.90,0.2,Calm,Calm,-,N/A,Fog,Fog,0,2013-03-31 02:35:00
9:55 PM,46.4,42.8,87,29.90,0.2,Calm,Calm,-,N/A,Fog,Fog,0,2013-03-31 02:55:00
10:15 PM,44.6,39.2,81,29.90,0.2,South,3.5,-,N/A,Fog,Fog,190,2013-03-31 03:15:00
10:35 PM,41.0,37.4,87,29.91,0.2,Calm,Calm,-,N/A,Fog,Fog,0,2013-03-31 03:35:00
10:55 PM,42.8,39.2,87,29.91,0.2,SW,4.6,-,N/A,Fog,Fog,230,2013-03-31 03:55:00
11:15 PM,41.0,37.4,87,29.91,0.2,SW,3.5,-,N/A,Fog,Fog,230,2013-03-31 04:15:00
11:35 PM,42.8,37.4,81,29.90,0.2,WSW,4.6,-,N/A,Fog,Fog,240,2013-03-31 04:35:00
11:55 PM,42.8,37.4,81,29.90,0.2,Calm,Calm,-,N/A,Fog,Fog,0,2013-03-31 04:55:00